Weather History for KETH - August, 2014

Change the Weather History Date:

Thursday, August 21, 2014

  Actual Average (K8D3) Record (K8D3)
Temperature  
Mean Temperature 71 °F 68 °F  
Max Temperature 78 °F 80 °F 102 °F (1947)
Min Temperature 64 °F 57 °F 35 °F (2004)
Degree Days  
Heating Degree Days 0 1  
Month to date heating degree days 12  
Since 1 June heating degree days 87  
Since 1 July heating degree days 25  
Cooling Degree Days 6 4  
Month to date cooling degree days 119  
Year to date cooling degree days 441  
Since 1 June cooling degree days 418  
Growing Degree Days 21 (Base 50)    
Moisture  
Dew Point 67 °F    
Average Humidity 87    
Maximum Humidity 100    
Minimum Humidity 69    
Precipitation  
Precipitation 0.54 in 0.06 in 2.58 in (1964)
Month to date precipitation 1.61  
Year to date precipitation 15.91  
Sea Level Pressure  
Sea Level Pressure 29.79 in    
Wind  
Wind Speed 9 mph (ESE)    
Max Wind Speed 18 mph    
Max Gust Speed 26 mph    
Visibility 10 miles    
Events Rain , Thunderstorm    
T = Trace of Precipitation, MM = Missing Value Source: NWS Daily Summary

Daily Weather History Graph

Daily Weather History Graph

Search for Another Location

Airport or City:

Trip Planner

Search our weather history database for the weather conditions in past years. The results will help you decide how hot, cold, wet, or windy it might be!

Date:

Astronomy

Aug. 21, 2014 Rise Set
Actual Time 6:33 AM CDT 8:24 PM CDT
Civil Twilight 6:01 AM CDT 8:55 PM CDT
Nautical Twilight 5:22 AM CDT 9:34 PM CDT
Astronomical Twilight 4:40 AM CDT 10:16 PM CDT
Moon 2:59 AM CDT (8/21) 5:58 PM CDT (8/21)
Length of Visible Light 14h 53m
Length of Day
13h 50m
Waning Crescent, 13% of the Moon is Illuminated
Aug 21
Waning Crescent
Aug 25
New
Sep 2
First Quarter
Sep 8
Full
Sep 15
Last Quarter

Hourly Weather History & Observations

Time (CDT) Temp. Dew Point Humidity Pressure Visibility Wind Dir Wind Speed Gust Speed Precip Events Conditions
12:16 AM 69.8 °F 66.2 °F 88% 29.77 in 7.0 mi East 10.4 mph - 0.02 in Rain , Thunderstorm Light Thunderstorms and Rain
12:36 AM 69.8 °F 66.2 °F 88% 29.77 in 10.0 mi East 13.8 mph - 0.02 in Rain , Thunderstorm Light Thunderstorms and Rain
12:56 AM 68.0 °F 66.2 °F 94% 29.76 in 10.0 mi ESE 15.0 mph - N/A Rain , Thunderstorm Light Thunderstorms and Rain
1:16 AM 68.0 °F 66.2 °F 94% 29.75 in 10.0 mi East 12.7 mph - N/A Thunderstorm Mostly Cloudy
1:36 AM 68.0 °F 66.2 °F 94% 29.74 in 10.0 mi ESE 15.0 mph - N/A Thunderstorm Overcast
1:56 AM 68.0 °F 66.2 °F 94% 29.73 in 10.0 mi ESE 13.8 mph 18.4 mph N/A Rain Light Rain
2:16 AM 68.0 °F 66.2 °F 94% 29.73 in 10.0 mi ESE 17.3 mph 24.2 mph N/A Rain , Thunderstorm Light Thunderstorms and Rain
2:36 AM 68.0 °F 66.2 °F 94% 29.71 in 10.0 mi ESE 11.5 mph - N/A Rain , Thunderstorm Light Thunderstorms and Rain
2:56 AM 66.2 °F 66.2 °F 100% 29.71 in 10.0 mi ESE 13.8 mph - N/A Rain , Thunderstorm Light Thunderstorms and Rain
3:16 AM 66.2 °F 66.2 °F 100% 29.73 in 10.0 mi ESE 8.1 mph - 0.03 in Rain , Thunderstorm Thunderstorms and Rain
3:36 AM 68.0 °F 66.2 °F 94% 29.81 in 1.8 mi SW 10.4 mph - 0.49 in Rain , Thunderstorm Heavy Thunderstorms and Rain
3:56 AM 66.2 °F 66.2 °F 100% 29.73 in 2.5 mi East 17.3 mph - N/A Rain , Thunderstorm Heavy Thunderstorms and Rain
4:16 AM 66.2 °F 66.2 °F 100% 29.71 in 10.0 mi East 16.1 mph 19.6 mph 0.04 in Rain , Thunderstorm Light Thunderstorms and Rain
4:36 AM 66.2 °F 66.2 °F 100% 29.70 in 10.0 mi ESE 16.1 mph 25.3 mph 0.05 in Rain Light Rain
4:56 AM 66.2 °F 66.2 °F 100% 29.71 in 10.0 mi ESE 18.4 mph 26.5 mph N/A Thunderstorm Scattered Clouds
5:16 AM 66.2 °F 66.2 °F 100% 29.72 in 10.0 mi ESE 17.3 mph 21.9 mph N/A Thunderstorm Clear
5:36 AM 66.2 °F 64.4 °F 94% 29.72 in 10.0 mi ESE 15.0 mph - N/A   Clear
5:56 AM 66.2 °F 64.4 °F 94% 29.73 in 10.0 mi ESE 13.8 mph 20.7 mph N/A   Clear
6:16 AM 64.4 °F 64.4 °F 100% 29.73 in 10.0 mi ESE 11.5 mph - N/A   Clear
6:36 AM 64.4 °F 62.6 °F 94% 29.75 in 10.0 mi SSE 8.1 mph - N/A   Clear
6:56 AM 64.4 °F 62.6 °F 94% 29.75 in 10.0 mi South 6.9 mph - N/A   Clear
7:16 AM 64.4 °F 64.4 °F 100% 29.75 in 10.0 mi South 4.6 mph - N/A   Clear
7:36 AM 66.2 °F 64.4 °F 94% 29.75 in 10.0 mi South 5.8 mph - N/A   Clear
7:56 AM 66.2 °F 64.4 °F 94% 29.76 in 10.0 mi SSE 6.9 mph - N/A   Scattered Clouds
8:16 AM 66.2 °F 64.4 °F 94% 29.76 in 10.0 mi SSE 8.1 mph - N/A   Scattered Clouds
8:36 AM 66.2 °F 66.2 °F 100% 29.76 in 10.0 mi SE 9.2 mph - N/A   Scattered Clouds
8:56 AM 68.0 °F 66.2 °F 94% 29.75 in 10.0 mi SE 9.2 mph - N/A   Clear
9:16 AM 69.8 °F 66.2 °F 88% 29.76 in 10.0 mi South 8.1 mph - N/A   Scattered Clouds
9:36 AM 69.8 °F 66.2 °F 88% 29.76 in 10.0 mi South 4.6 mph - N/A   Mostly Cloudy
9:56 AM 69.8 °F 66.2 °F 88% 29.76 in 10.0 mi SSE 9.2 mph - N/A   Overcast
10:16 AM 69.8 °F 66.2 °F 88% 29.76 in 10.0 mi SSE 6.9 mph - N/A   Overcast
10:36 AM 71.6 °F 66.2 °F 83% 29.76 in 10.0 mi SSE 6.9 mph - N/A   Overcast
10:56 AM 71.6 °F 66.2 °F 83% 29.77 in 10.0 mi South 4.6 mph - N/A   Overcast
11:16 AM 71.6 °F 66.2 °F 83% 29.78 in 10.0 mi South 5.8 mph - N/A   Mostly Cloudy
11:36 AM 71.6 °F 66.2 °F 83% 29.78 in 10.0 mi Calm Calm - N/A   Scattered Clouds
11:56 AM 73.4 °F 68.0 °F 83% 29.78 in 10.0 mi WSW 3.5 mph - N/A   Scattered Clouds
12:16 PM 73.4 °F 66.2 °F 78% 29.78 in 10.0 mi WNW 3.5 mph - N/A   Scattered Clouds
12:36 PM 75.2 °F 69.8 °F 83% 29.77 in 10.0 mi West 3.5 mph - N/A   Scattered Clouds
12:56 PM 75.2 °F 68.0 °F 78% 29.77 in 10.0 mi NW 5.8 mph - N/A   Scattered Clouds
1:16 PM 75.2 °F 68.0 °F 78% 29.78 in 10.0 mi WNW 5.8 mph - N/A   Scattered Clouds
1:36 PM 77.0 °F 68.0 °F 74% 29.78 in 10.0 mi NW 8.1 mph - N/A   Scattered Clouds
1:56 PM 77.0 °F 68.0 °F 74% 29.78 in 10.0 mi North 6.9 mph - N/A   Scattered Clouds
2:16 PM 75.2 °F 68.0 °F 78% 29.79 in 10.0 mi NNW 8.1 mph - N/A   Scattered Clouds
2:36 PM 75.2 °F 68.0 °F 78% 29.79 in 10.0 mi NNW 5.8 mph - N/A   Scattered Clouds
2:56 PM 77.0 °F 68.0 °F 74% 29.80 in 10.0 mi North 4.6 mph - N/A   Scattered Clouds
3:16 PM 75.2 °F 68.0 °F 78% 29.80 in 10.0 mi North 3.5 mph - N/A   Scattered Clouds
3:36 PM 77.0 °F 68.0 °F 74% 29.80 in 10.0 mi North 4.6 mph - N/A   Scattered Clouds
3:56 PM 77.0 °F 68.0 °F 74% 29.81 in 10.0 mi North 5.8 mph - N/A   Scattered Clouds
4:16 PM 75.2 °F 66.2 °F 73% 29.81 in 10.0 mi NE 3.5 mph - N/A   Scattered Clouds
4:36 PM 77.0 °F 69.8 °F 78% 29.82 in 10.0 mi North 3.5 mph - N/A   Scattered Clouds
4:56 PM 75.2 °F 68.0 °F 78% 29.82 in 10.0 mi North 3.5 mph - N/A   Scattered Clouds
5:16 PM 78.8 °F 69.8 °F 74% 29.83 in 10.0 mi NW 3.5 mph - N/A   Scattered Clouds
5:36 PM 78.8 °F 68.0 °F 69% 29.83 in 10.0 mi Calm Calm - N/A   Scattered Clouds
5:56 PM 78.8 °F 68.0 °F 69% 29.83 in 10.0 mi NW 3.5 mph - N/A   Clear
6:16 PM 77.0 °F 68.0 °F 74% 29.83 in 10.0 mi Calm Calm - N/A   Clear
6:36 PM 78.8 °F 68.0 °F 69% 29.84 in 10.0 mi NW 3.5 mph - N/A   Clear
6:56 PM 78.8 °F 69.8 °F 74% 29.84 in 10.0 mi Calm Calm - N/A   Clear
7:16 PM 77.0 °F 68.0 °F 74% 29.85 in 10.0 mi Calm Calm - N/A   Clear
7:36 PM 77.0 °F 69.8 °F 78% 29.85 in 10.0 mi Calm Calm - N/A   Clear
7:56 PM 75.2 °F 68.0 °F 78% 29.85 in 10.0 mi Calm Calm - N/A   Clear
8:16 PM 73.4 °F 69.8 °F 88% 29.86 in 10.0 mi Calm Calm - N/A   Clear
8:36 PM 71.6 °F 69.8 °F 94% 29.86 in 10.0 mi Calm Calm - N/A   Clear
8:56 PM 71.6 °F 68.0 °F 88% 29.87 in 10.0 mi Calm Calm - N/A   Clear
9:16 PM 71.6 °F 68.0 °F 88% 29.87 in 10.0 mi Calm Calm - N/A   Clear
9:36 PM 69.8 °F 66.2 °F 88% 29.88 in 10.0 mi Calm Calm - N/A   Clear
9:56 PM 69.8 °F 66.2 °F 88% 29.89 in 10.0 mi Calm Calm - N/A   Clear
11:35 PM - - N/A% 29.90 in - North - - N/A   Unknown
11:39 PM 66.2 °F 64.4 °F 94% 29.90 in - Calm Calm - N/A   Unknown
11:56 PM 66.2 °F 64.4 °F 94% 29.90 in 5.0 mi Calm Calm - N/A   Clear